GW0092 Weather Reports


Display with metric or nautical units.
time (UTC)temp
F
wind
direction
speed
MPH
gust
MPH
rain 1hr
in
rain 24hr
in
rain mn
in
humidity
%
barometer
mb
20260904210117 88 301 2.0 5.0 0.00 0.39 0.39 70 1012.0
20260904204604 88 295 2.0 5.0 0.00 0.39 0.39 69 1012.0
20260904203102 88 345 2.0 6.0 0.00 0.39 0.39 68 1011.9
20260904201602 88 258 0.0 4.0 0.00 0.39 0.39 73 1011.8
20260904194558 88 321 2.0 5.0 0.00 0.39 0.39 71 1012.0
20260904193116 87 20 3.0 7.0 0.00 0.39 0.39 74 1012.3
20260904191604 87 356 2.0 6.0 0.00 0.39 0.39 73 1012.6
20260904190058 87 28 0.0 4.0 0.00 0.39 0.39 75 1012.5
20260904184621 86 223 2.0 6.0 0.00 0.39 0.39 71 1012.9
20260904183102 86 281 4.0 7.0 0.00 0.39 0.39 72 1013.2
20260904181610 85 274 2.0 7.0 0.00 0.39 0.39 78 1013.2
20260904180120 86 0 1.0 6.0 0.00 0.39 0.39 74 1013.2
20260904174613 86 293 2.0 6.0 0.00 0.39 0.39 78 1013.4
20260904173101 85 292 3.0 8.0 0.00 0.39 0.39 74 1013.5
20260904171606 85 326 2.0 6.0 0.00 0.39 0.39 77 1013.4
20260904170105 84 296 3.0 6.0 0.00 0.39 0.39 74 1013.5
20260904164602 84 275 3.0 7.0 0.00 0.39 0.39 76 1013.6
20260904163107 84 286 3.0 8.0 0.00 0.39 0.39 78 1013.7
20260904161603 84 15 3.0 7.0 0.00 0.39 0.39 76 1013.7
20260904160106 84 346 4.0 11.0 0.00 0.39 0.39 79 1013.9
20260904154600 84 297 5.0 12.0 0.00 0.39 0.39 79 1014.0
20260904153105 83 328 4.0 9.0 0.00 0.39 0.39 78 1013.8
20260904151602 83 6 4.0 10.0 0.00 0.39 0.39 81 1013.8
20260904150100 82 1 4.0 9.0 0.00 0.39 0.39 81 1013.8
20260904144600 82 315 3.0 9.0 0.00 0.39 0.39 83 1014.1
20260904143109 81 342 4.0 10.0 0.00 0.39 0.39 84 1013.9
20260904141602 81 290 3.0 9.0 0.00 0.39 0.39 85 1013.7
20260904140104 80 322 3.0 9.0 0.00 0.39 0.39 88 1013.7
20260904134603 80 301 3.0 6.0 0.00 0.39 0.39 89 1013.7
20260904133114 78 312 4.0 8.0 0.00 0.39 0.39 92 1013.8
20260904131604 77 350 3.0 8.0 0.00 0.39 0.39 93 1013.7
20260904124608 75 324 2.0 5.0 0.00 0.39 0.39 98 1013.7
20260904123116 74 11 2.0 6.0 0.00 0.39 0.39 98 1013.7
20260904121603 74 329 2.0 5.0 0.00 0.39 0.39 98 1013.9
20260904120110 73 351 1.0 6.0 0.00 0.39 0.39 98 1013.8
20260904114605 72 318 1.0 5.0 0.00 0.39 0.39 98 1013.7
20260904113103 72 6 3.0 6.0 0.00 0.39 0.39 99 1013.8
20260904111606 72 354 1.0 4.0 0.01 0.39 0.39 99 1013.8
20260904110110 72 315 1.0 2.0 0.01 0.39 0.39 99 1013.4
20260904104604 72 0 0.0 3.0 0.01 0.39 0.39 99 1013.1
20260904103101 72 0 0.0 3.0 0.01 0.39 0.39 99 1013.0
20260904101615 72 0 0.0 0.0 0.00 0.38 0.38 99 1012.9
20260904094604 73 145 1.0 3.0 0.00 0.38 0.38 100 1012.8
20260904093118 73 0 0.0 0.0 0.00 0.38 0.38 100 1012.4
20260904091601 73 0 0.0 0.0 0.01 0.38 0.38 99 1012.8
20260904090059 73 0 0.0 0.0 0.02 0.38 0.38 99 1012.7
20260904084603 73 0 0.0 0.0 0.03 0.38 0.38 99 1012.7
20260904083105 74 0 0.0 0.0 0.05 0.38 0.38 99 1012.9
20260904081601 74 0 0.0 2.0 0.06 0.37 0.37 100 1013.2
20260904074603 74 0 0.0 1.0 0.11 0.35 0.35 99 1013.9
20260904073101 74 0 0.0 1.0 0.21 0.33 0.33 99 1013.9
20260904071601 74 0 0.0 3.0 0.28 0.31 0.31 99 1013.8
20260904070107 74 122 0.0 6.0 0.28 0.28 0.28 99 1015.2
20260904064602 74 313 4.0 13.0 0.24 0.24 0.24 98 1016.2
20260904063101 74 330 5.0 12.0 0.12 0.12 0.12 98 1015.8
20260904061600 75 333 8.0 18.0 0.03 0.03 0.03 97 1015.3
20260904060057 78 295 5.0 14.0 0.00 0.00 0.00 96 1014.4
20260904054604 77 359 0.0 2.0 0.00 0.00 0.00 100 1014.1
20260904053102 77 0 0.0 0.0 0.00 0.00 0.00 100 1012.8
20260904051604 77 0 0.0 0.0 0.00 0.00 0.00 100 1013.4
20260904050104 77 0 0.0 0.0 0.00 0.00 0.00 100 1013.2
20260904044610 77 0 0.0 0.0 0.00 0.00 0.00 100 1013.4
20260904043059 77 0 0.0 0.0 0.00 0.00 0.00 100 1013.4
20260904041604 77 0 0.0 0.0 0.00 0.00 0.00 100 1013.3
20260904040104 78 0 0.0 0.0 0.00 0.00 0.00 100 1013.7
20260904034601 78 0 0.0 0.0 0.00 0.00 0.00 100 1014.0
20260904033059 78 0 0.0 0.0 0.00 0.00 0.00 99 1014.1
20260904031553 77 0 0.0 0.0 0.00 0.00 0.00 99 1014.2
20260904030103 78 0 0.0 0.0 0.00 0.00 0.00 99 1013.8
20260904024601 78 0 0.0 0.0 0.00 0.00 0.00 99 1013.9
20260904023103 78 0 0.0 0.0 0.00 0.00 0.00 99 1013.9
20260904021602 78 0 0.0 0.0 0.00 0.00 0.00 99 1013.9
20260904020101 78 0 0.0 0.0 0.00 0.00 0.00 99 1014.3
20260904014600 78 0 0.0 0.0 0.00 0.00 0.00 99 1014.5
20260904013102 78 0 0.0 0.0 0.00 0.00 0.00 99 1014.8
20260904011613 78 0 0.0 0.0 0.00 0.00 0.00 99 1015.1
20260904010108 78 0 0.0 0.0 0.00 0.00 0.00 98 1015.1
20260904004603 78 0 0.0 0.0 0.00 0.00 0.00 98 1014.9
20260904003102 79 0 0.0 0.0 0.00 0.00 0.00 97 1014.8
20260904001558 79 0 0.0 0.0 0.00 0.00 0.00 96 1014.6
20260903234604 80 0 0.0 0.0 0.00 0.00 0.00 95 1014.1
20260903233102 81 0 0.0 0.0 0.00 0.00 0.00 94 1014.0
20260903231601 82 0 0.0 0.0 0.00 0.00 0.00 93 1014.1
20260903230104 82 0 0.0 0.0 0.00 0.00 0.00 92 1013.9
20260903224602 83 0 0.0 0.0 0.00 0.00 0.00 90 1013.9
20260903223058 84 0 0.0 1.0 0.00 0.00 0.00 88 1013.9
20260903221604 85 0 0.0 1.0 0.00 0.00 0.00 86 1014.1
20260903220123 85 0 1.0 5.0 0.00 0.00 0.00 85 1014.1
20260903214600 86 78 0.0 5.0 0.00 0.00 0.00 84 1014.2
20260903213101 87 0 0.0 4.0 0.00 0.00 0.00 82 1014.3
20260903211558 88 321 1.0 5.0 0.00 0.00 0.00 81 1014.4